AOE轨道清单API文档

更新时间:2025-02-10 15:30:00

1. 授权参数

Authorization: Bearer {API TOKEN}

其中 {API TOKEN} 是你在控制台创建的API令牌。该 token 在后续的 API 请求中用于身份验证。

2. 轨道数据

GET https://spacemapper.cn/cgi/orbital/aoe/list

请求头部

参数名 说明
Authorization Bearer YOUR_API_TOKEN

请求参数

Parameter Name Type Description Notes
altitude string 轨道高度 ​​HEO(高地球轨道), ​LEO(低地球轨道), MEO(中地球轨道)
apogeeAltitudeMax number(double) 远地点最大值 数字类型。单位:km
apogeeAltitudeMin number(double) 远地点最小值 数字类型。单位:km
catId integer(int32) 编目ID / CHANNEL CATALOG ID 编目ID
catIds string 编目ID数组 / CHANNEL CATALOG IDs 以逗号分隔的编目ID字符串
channel string 轨道库 INTERNATIONAL(国际库), KY(AOE库)
constellationId string 星座ID,可通过星座ID表查询 以逗号分隔的星座ID字符串,星座ID 通过 星座列表 页面查询
eccentricityMax number(double) 轨道偏心率(E)最大值 范围:0 到 1,0表示圆形,接近1为椭圆形
eccentricityMin number(double) 轨道偏心率(E)最小值 范围:0 到 1,0表示圆形,接近1为椭圆形
epochBegin string(date-time) 开始时间 时间格式
epochEnd string(date-time) 结束时间 时间格式
inclinationMax number(double) 轨道倾角(I)最大值 范围:0° 到 180°
inclinationMin number(double) 轨道倾角(I)最小值 范围:0° 到 180°
lastUpdate integer(int32) 更新时间 1天内(24小时),2天内(48小时),3天内(72小时),7天内(168小时),7天以上,值:1,2,3,7,-1
launchDate string(date) 发射日期 例:2022-09-11
name string 卫星名称 字符串
noradId integer(int32) NORAD CATALOG ID 北美编目ID
noradIds string NORAD CATALOG IDs 以逗号分隔的北美编目ID字符串
objectId string 国际编号 例如:2025-024
perigeeAltitudeMax number(double) 近地点高度最大值 范围:单位 km
perigeeAltitudeMin number(double) 近地点高度最小值 范围:单位 km
periodMax integer(int32) 轨道周期最大值 范围:单位 分钟
periodMin integer(int32) 轨道周期最小值 范围:单位 分钟
raanMax number(double) 升交点经度(RAAN)最大值 范围:0° 到 360°
raanMin number(double) 升交点经度(RAAN)最小值 范围:0° 到 360°
type string 轨道类型 ELLIPTICAL(椭圆轨道), GEO(地球静止轨道), IGSO(倾斜地球同步轨道), POLAR(极地轨道)​, SSO(太阳同步轨道)
rid string 请求码 资源请求码, 创建请求码什么是请求码?
format string 轨道高度 ​响应格式:值 tle/2tle/json,默认 tle

响应示例(默认)

COSMOS 2533
1 43867U          25064.87500000  .00000000  00000-0  10000-7 0 00000
2 43867 000.0233 108.4979 0000072 177.1925 263.1406 01.00273394000000

响应示例(2LE)

1 43867U          25064.87500000  .00000000  00000-0  10000-7 0 00000
2 43867 000.0233 108.4979 0000072 177.1925 263.1406 01.00273394000000

响应示例 (JSON)

{
 "OBJECT_NAME": "EUTE 36D",
 "OBJECT_ID": "2000-000",
 "EPOCH": "2025-03-06T03:00:00+0800",
 "MEAN_MOTION": 1.002717,
 "ECCENTRICITY": 0.0000398,
 "INCLINATION": 0.0195,
 "RA_OF_ASC": 140.1303,
 "ARG_OF_PER": 163.395,
 "MEAN_ANOMALY": 181.1003,
 "EPHEMERIS_TYPE": 0,
 "CLASSIFICATION": "U",
 "NORAD_CAT_ID": 59346,
 "ELEMENT_SET_NO": 0,
 "REV_AT_EPOCH": 0,
 "BSTAR": 0,
 "MEAN_MOTION_DOT": 0,
 "MEAN_MOTION_DOT_DOT": 0,
 "SEMIMAJOR_AXIS": 42164.756,
 "APOGEE": 35788.3,
 "PERIGEE": 35788.3,
 "PERIOD": 1436.0981,
 "LINE1": "1 59346U          25064.79166667  .00000000  00000-0  10000-7 0 00000",
 "LINE2": "2 59346 000.0195 140.1303 0000398 163.3950 181.1003 01.00271749000000"
},

7 * 24

多渠道服务支持

专业服务

云业务全流程支持

值得信赖

可以依赖的合作伙伴

专属贴身服务

1V1贴身服务,专属保障

建议反馈

优化建议反馈